Location: Embarras
(53.3000°N, 116.9000°W)
Time: 09:51:17
(UTC+00:00)

KAITUO 1B - Visible Passes

Search period start: 01 December 2023 00:00
Search period end: 11 December 2023 00:00
Orbit: 351 x 358 km, 97.4° (Epoch: 30 November)

Date Brightness Start Highest point End Pass type
(mag) Time Alt. Az. Time Alt. Az. Time Alt. Az.
02 Dec ? 14:35:38 10° ENE 14:37:00 13° E 14:38:23 10° ESE visible
03 Dec ? 15:00:48 10° NE 15:03:14 25° E 15:05:37 10° SSE visible
06 Dec ? 14:46:15 10° NE 14:48:09 16° E 14:50:03 10° SE visible
10 Dec ? 14:51:06 10° NE 14:53:10 18° E 14:55:12 10° SE visible
